Tacoma Narrows, WA
on Sunday, February 17, 2013

Sunday
Previous Day Next Day
Daily Summary
 ActualAverageRecord
Temperature
Mean Temperature °F °F  
Max Temperature 46°F 47°F 57°F (2007)
Min Temperature 39°F 36°F 26°F (2006)
Degree Days
Heating Degree Days 22    
Moisture
Dew Point 34°F   
Average Humidity 76    
Maximum Humidity 86    
Minimum Humidity 58    
Precipitation
Precipitation 0.00 in in in ()
Wind
Wind Speed 9 mph   
Max Wind Speed 12 mph   
Max Gust Speed mph   
Visibility 10 miles   
Events     
Averages and records for this station are not official NWS values.
Key: T is trace of precipitation, MM is missing value
Source: NWS Daily Summary
Seasonal Weather Averages
Time(PST)TemperatureDew PointHumidity Pressure Visibility Wind DirectionWind SpeedGust SpeedPrecipitationEvents Conditions
12:53 AM 39.9°F 34.0°F 79% 30.22 in 10.0 miles South 8.1 mph - N/A   Overcast
1:53 AM 39.0°F 34.0°F 82% 30.23 in 10.0 miles South 11.5 mph - N/A   Scattered Clouds
2:32 AM 39.2°F 33.8°F 81% 30.22 in 10.0 miles South 10.4 mph - N/A   Mostly Cloudy
2:53 AM 39.0°F 33.1°F 79% 30.23 in 10.0 miles South 8.1 mph - N/A   Overcast
3:53 AM 39.0°F 34.0°F 82% 30.22 in 10.0 miles South 10.4 mph - N/A   Overcast
4:53 AM 39.9°F 34.0°F 79% 30.22 in 10.0 miles South 10.4 mph - N/A   Overcast
5:53 AM 39.0°F 34.0°F 82% 30.24 in 10.0 miles South 9.2 mph - N/A   Overcast
6:24 AM 39.2°F 33.8°F 81% 30.23 in 10.0 miles SSW 10.4 mph - N/A   Overcast
6:51 AM 39.2°F 33.8°F 81% 30.22 in 10.0 miles SSW 11.5 mph - N/A   Overcast
6:53 AM 39.0°F 34.0°F 82% 30.23 in 10.0 miles SSW 9.2 mph - N/A   Overcast
7:53 AM 39.0°F 33.1°F 79% 30.25 in 10.0 miles SSW 9.2 mph - N/A   Overcast
8:53 AM 39.0°F 34.0°F 82% 30.25 in 10.0 miles South 9.2 mph - N/A   Mostly Cloudy
9:53 AM 42.1°F 35.1°F 76% 30.25 in 10.0 miles SW 6.9 mph - N/A   Mostly Cloudy
10:53 AM 45.0°F 35.1°F 68% 30.25 in 10.0 miles South 10.4 mph - N/A   Scattered Clouds
11:53 AM 44.1°F 34.0°F 68% 30.25 in 10.0 miles South 11.5 mph - N/A   Mostly Cloudy
12:53 PM 46.9°F 35.1°F 63% 30.22 in 10.0 miles South 11.5 mph - N/A   Mostly Cloudy
1:53 PM 46.0°F 33.1°F 61% 30.22 in 10.0 miles South 8.1 mph - N/A   Mostly Cloudy
2:53 PM 46.0°F 32.0°F 58% 30.20 in 10.0 miles South 9.2 mph - N/A   Mostly Cloudy
3:53 PM 46.0°F 33.1°F 61% 30.19 in 10.0 miles South 8.1 mph - N/A   Mostly Cloudy
4:53 PM 44.1°F 34.0°F 68% 30.18 in 10.0 miles South 9.2 mph - N/A   Scattered Clouds
5:53 PM 43.0°F 34.0°F 71% 30.17 in 10.0 miles South 5.8 mph - N/A   Mostly Cloudy
6:53 PM 42.1°F 35.1°F 76% 30.17 in 10.0 miles South 6.9 mph - N/A   Scattered Clouds
7:53 PM 42.1°F 36.0°F 79% 30.17 in 10.0 miles SSW 8.1 mph - N/A   Overcast
9:17 PM 42.8°F 35.6°F 76% 30.15 in 10.0 miles SSW 4.6 mph - N/A   Mostly Cloudy
9:35 PM 41.0°F 35.6°F 81% 30.15 in 10.0 miles South 6.9 mph - N/A   Overcast
9:53 PM 41.0°F 36.0°F 82% 30.15 in 10.0 miles South 6.9 mph - N/A   Mostly Cloudy
10:53 PM 41.0°F 36.0°F 82% 30.14 in 10.0 miles SSW 4.6 mph - N/A   Overcast
11:53 PM 39.9°F 36.0°F 86% 30.12 in 10.0 miles ESE 3.5 mph - N/A   Partly Cloudy
Moon Phase
Feb. 17 Feb. 17 Feb. 25 Mar. 04 Mar. 11
Sunrise:07:11 AM (PST) Moon Rise:10:36 AM (PST)2/17
Sunset:05:37 PM (PST) Moon Set:01:09 AM (PST)2/17

Copyright © 2014 The Weather Underground, Inc.